Temperature
-0 -0 -0 -0 -1 -0 -0 -0 -1 -1 -0 1 1 2 2 2 2 3 3 3 3 3 4 4 4 4 4 4 5 5 5 6 6 6 6 6 6 6
-1 -1 -1 -1 -1 -1 -1 -1 -1 -1 -1 -0 0 1 1 1 1 2 2 2 3 3 3 3 3 4 4 4 4 4 5 5 5 5 5 5 6 6
-2 -1 -1 -1 -1 -1 -1 -1 -1 -2 -2 -1 -1 -0 0 0 1 1 1 1 2 2 2 2 3 3 3 3 3 4 4 4 4 5 5 5 5 5
-2 -2 -2 -2 -2 -2 -2 -2 -2 -2 -2 -2 -1 -1 -1 -0 -0 0 0 1 1 1 1 2 2 2 2 2 2 3 3 3 3 4 4 4 4 4
-3 -3 -3 -3 -2 -2 -2 -2 -2 -3 -3 -3 -2 -2 -2 -1 -1 -1 -0 -0 0 1 1 1 1 1 2 2 2 2 2 2 3 3 3 3 4 4
-4 -3 -3 -3 -3 -3 -3 -3 -3 -3 -3 -3 -3 -3 -2 -2 -2 -2 -1 -1 -1 -0 -0 0 1 1 1 1 1 1 2 2 2 2 2 3 3 3
-4 -4 -4 -4 -4 -4 -4 -4 -4 -4 -4 -4 -4 -3 -3 -3 -3 -3 -2 -2 -2 -1 -1 -0 -0 0 0 0 1 1 1 1 1 1 2 2 2 2
-5 -5 -5 -4 -4 -4 -4 -4 -4 -4 -4 -4 -4 -4 -4 -3 -3 -3 -3 -3 -3 -2 -2 -1 -1 -1 -0 -0 0 0 0 1 1 1 1 1 1 2
-6 -6 -5 -5 -5 -5 -5 -5 -5 -5 -5 -5 -5 -4 -4 -4 -4 -4 -4 -4 -3 -3 -3 -2 -2 -1 -1 -1 -1 -1 -0 -0 0 0 0 0 0 1
-7 -6 -6 -6 -6 -6 -6 -6 -5 -5 -5 -5 -5 -5 -5 -4 -4 -4 -4 -4 -4 -4 -3 -3 -2 -2 -2 -1 -1 -1 -1 -1 -1 -1 -0 -0 -0 -0
-7 -7 -7 -7 -7 -7 -7 -6 -6 -6 -6 -6 -5 -5 -5 -5 -5 -5 -5 -5 -5 -4 -4 -4 -3 -3 -3 -2 -2 -2 -2 -2 -2 -1 -1 -1 -1 -1
-8 -8 -8 -8 -8 -7 -7 -7 -7 -6 -6 -6 -6 -6 -6 -5 -5 -5 -5 -5 -5 -5 -5 -5 -4 -4 -4 -3 -3 -3 -3 -3 -2 -2 -2 -2 -2 -2
-9 -9 -9 -8 -8 -8 -8 -8 -8 -7 -7 -7 -6 -6 -6 -6 -6 -6 -6 -6 -6 -6 -5 -5 -5 -5 -5 -5 -4 -3 -3 -3 -3 -3 -3 -3 -3 -2
-10 -9 -9 -9 -9 -8 -8 -8 -8 -8 -8 -7 -7 -7 -7 -6 -6 -6 -6 -6 -6 -6 -6 -6 -6 -6 -6 -5 -5 -5 -4 -4 -4 -4 -3 -3 -3 -3
-10 -10 -10 -9 -9 -9 -9 -9 -8 -8 -8 -8 -8 -8 -7 -7 -7 -7 -7 -6 -6 -6 -6 -6 -6 -6 -6 -6 -6 -5 -5 -5 -5 -4 -4 -4 -4 -4
-10 -10 -10 -10 -10 -10 -9 -9 -9 -9 -9 -8 -8 -8 -8 -8 -8 -7 -7 -7 -7 -7 -6 -7 -7 -7 -7 -6 -6 -6 -6 -6 -5 -5 -5 -5 -5 -4
-11 -10 -10 -10 -10 -10 -10 -10 -10 -9 -9 -9 -9 -9 -8 -8 -8 -8 -8 -7 -8 -7 -7 -7 -7 -7 -7 -7 -7 -7 -6 -6 -6 -6 -6 -6 -5 -5
-11 -11 -11 -11 -11 -11 -11 -10 -10 -10 -10 -10 -9 -9 -9 -9 -8 -8 -8 -8 -8 -8 -8 -7 -7 -8 -8 -8 -7 -7 -7 -7 -6 -6 -6 -6 -6 -6
-12 -12 -12 -11 -12 -11 -11 -11 -11 -11 -11 -10 -10 -10 -10 -9 -9 -9 -9 -9 -9 -8 -8 -8 -8 -8 -8 -8 -8 -7 -7 -7 -7 -7 -7 -7 -7 -6
-12 -12 -12 -12 -12 -12 -12 -12 -12 -11 -11 -11 -11 -10 -10 -10 -10 -9 -9 -9 -9 -9 -9 -9 -9 -9 -8 -8 -8 -8 -8 -8 -8 -8 -7 -7 -7 -7
-13 -13 -13 -13 -13 -13 -12 -12 -12 -12 -12 -11 -11 -11 -11 -10 -10 -10 -10 -10 -10 -9 -9 -9 -9 -9 -9 -9 -9 -8 -8 -8 -8 -8 -8 -8 -8 -8
-13 -13 -13 -13 -13 -13 -13 -13 -13 -13 -12 -12 -12 -11 -11 -11 -11 -10 -10 -10 -10 -10 -10 -10 -9 -9 -9 -9 -9 -9 -9 -8 -8 -8 -9 -9 -9 -8
-14 -14 -14 -14 -14 -14 -14 -13 -13 -13 -13 -13 -12 -12 -12 -11 -11 -11 -11 -11 -11 -10 -10 -10 -10 -10 -10 -9 -9 -9 -9 -9 -9 -9 -9 -9 -9 -9
Wind_Speed
3 3 4 3 3 3 3 3 3 4 5 3 2 1 3 4 5 5 5 7 7 7 7 7 6 6 6 6 6 6 6 6 6 6 6 6 7 7
3 3 4 3 3 3 4 4 4 5 5 3 3 2 3 4 6 6 6 7 8 7 8 7 7 7 7 7 7 7 7 7 7 7 7 7 6 6
4 4 5 4 4 4 4 4 5 5 6 5 3 3 3 3 5 5 6 6 6 7 7 7 7 8 8 8 8 8 9 8 8 7 7 7 7 7
5 5 6 5 5 4 4 5 5 5 5 7 4 3 4 4 4 4 4 5 6 7 7 7 7 7 8 8 8 9 9 9 8 7 7 7 7 8
6 6 6 6 6 5 5 5 5 5 5 5 6 4 3 3 3 4 4 4 5 6 7 8 8 7 8 9 9 9 9 9 8 8 8 7 8 7
6 6 6 6 7 6 6 6 5 5 5 5 5 4 3 3 3 3 4 3 4 4 6 6 7 8 8 9 9 10 9 9 9 8 8 7 7 8
6 6 6 7 9 8 6 5 5 5 5 5 5 4 4 3 4 3 4 4 4 3 3 4 4 5 6 8 9 8 8 9 9 9 8 8 7 7
7 6 6 7 9 11 11 10 9 7 7 6 6 6 6 5 4 4 4 4 4 2 2 4 3 4 5 6 8 8 8 8 9 9 9 9 9 8
6 6 6 6 8 6 9 11 11 13 12 8 8 8 7 6 5 6 6 6 6 3 3 5 3 4 5 7 9 9 9 9 8 8 8 9 9 10
5 5 6 6 6 7 6 6 7 8 10 8 8 8 7 7 7 7 6 5 5 4 4 4 4 4 4 6 9 10 10 10 9 9 8 8 9 9
6 6 6 6 10 10 7 7 7 7 10 11 11 11 12 11 9 5 5 5 5 4 4 3 3 3 3 4 7 9 9 9 9 9 8 8 8 8
5 5 8 8 10 10 6 6 7 7 6 6 7 8 8 9 10 7 6 6 4 4 4 3 2 1 2 2 3 4 6 8 9 9 9 9 8 5
5 5 5 10 11 11 9 6 9 8 5 5 5 5 4 4 5 6 6 6 6 5 4 3 2 2 3 2 2 3 4 4 5 7 8 9 8 6
5 5 6 11 11 11 8 9 11 9 4 4 4 4 5 5 4 5 7 8 7 7 7 6 4 4 4 4 3 2 2 3 4 4 5 7 7 7
6 8 10 11 10 8 9 10 7 4 3 4 5 5 4 4 4 4 5 5 4 5 7 7 5 4 5 5 4 3 3 3 4 4 4 5 5 5
6 8 9 9 7 7 7 6 4 3 3 4 4 3 3 3 3 3 3 3 2 2 4 7 7 5 5 4 4 4 3 3 3 4 4 4 5 6
5 3 3 4 4 4 4 4 3 3 4 3 3 3 3 3 3 2 2 3 3 3 3 2 3 4 4 4 4 5 4 4 4 4 4 4 5 6
4 3 3 3 4 4 4 4 4 3 3 3 3 3 4 3 3 2 2 3 4 4 4 3 2 1 1 3 5 6 5 4 4 4 3 4 5 4
3 3 4 4 4 4 4 4 4 4 3 3 4 3 3 3 3 3 3 3 4 4 4 3 3 4 5 5 3 5 5 4 4 4 4 4 5 5
3 3 4 4 4 4 4 4 4 4 3 3 3 3 3 3 3 3 3 3 3 3 3 3 4 5 6 5 3 3 5 4 4 4 3 3 3 4
3 4 4 4 4 4 4 4 4 4 4 3 3 3 3 3 3 3 3 4 3 3 4 4 4 4 2 1 1 2 3 4 5 4 3 2 3 3
4 4 4 4 4 4 4 4 4 4 4 4 4 3 3 3 3 3 3 3 3 3 4 3 2 1 2 3 3 3 2 2 1 2 4 5 3 4
4 4 4 4 4 4 4 4 4 4 4 4 4 3 3 3 3 3 3 3 2 2 2 2 2 1 2 3 3 2 2 2 1 1 2 3 4 5
Wind_Direction
244 244 241 241 235 232 225 216 226 253 257 253 257 281 309 298 303 307 293 285 286 279 276 271 260 254 254 253 254 260 262 262 244 233 225 232 223 220
247 244 249 240 233 233 228 230 230 236 254 250 247 271 291 292 289 290 279 280 276 277 273 260 252 250 247 244 248 254 255 255 238 235 227 233 228 227
263 251 254 247 236 231 232 230 230 230 248 264 252 264 261 270 291 286 277 273 271 272 268 257 252 248 245 243 247 251 252 247 236 236 231 234 237 231
267 258 256 253 242 233 231 232 231 231 236 257 262 256 254 264 275 279 284 275 270 265 260 256 251 247 244 243 243 244 248 244 235 238 232 236 245 241
267 263 261 253 249 244 235 235 233 237 235 247 258 256 257 268 276 283 285 280 277 270 259 252 247 247 247 246 245 244 243 233 232 238 237 242 241 247
269 264 261 253 248 243 240 236 233 233 238 244 252 255 255 256 252 264 279 271 275 278 265 257 252 253 251 249 245 242 237 230 230 236 236 234 238 243
275 267 262 260 259 252 248 236 230 230 237 243 247 250 247 242 244 251 266 279 269 256 258 267 262 257 253 250 244 233 229 229 232 233 233 233 239 244
284 276 267 264 266 265 261 254 244 238 234 240 245 243 245 241 240 246 257 267 272 242 248 274 255 251 252 241 239 234 233 232 233 232 232 234 236 239
284 276 275 273 275 266 265 261 257 256 249 244 243 243 244 234 230 241 244 249 256 245 248 268 254 261 255 242 242 239 236 233 230 230 233 236 238 238
290 277 272 269 266 264 261 261 256 255 256 249 242 244 246 238 229 234 239 253 267 255 231 255 255 255 264 247 243 240 235 231 232 232 232 239 243 241
299 293 285 276 275 274 266 263 268 266 265 260 256 254 253 251 243 232 232 238 257 252 223 234 246 260 257 247 243 238 232 230 233 234 234 236 239 240
301 296 294 295 293 289 271 262 267 270 270 268 259 261 259 255 250 234 226 233 248 250 216 210 220 226 257 242 238 238 230 231 235 236 237 236 233 222
303 304 302 306 303 297 289 270 270 274 265 260 257 250 246 246 245 240 231 229 236 244 215 197 211 213 230 258 259 249 221 220 228 233 233 232 231 223
300 301 300 305 307 305 300 292 287 282 270 262 260 254 246 240 239 239 235 235 236 235 223 213 222 222 229 253 258 241 227 221 215 219 220 232 235 235
302 303 307 310 312 312 311 309 304 291 273 266 261 261 258 249 237 241 240 237 243 240 223 224 226 229 231 239 249 248 249 245 220 214 215 220 221 217
311 310 315 319 321 320 318 320 314 295 286 271 273 273 267 255 242 231 236 231 241 255 237 226 223 219 232 244 239 250 241 225 219 224 222 231 229 221
318 323 327 322 320 321 321 322 321 314 299 293 285 282 277 264 255 237 224 220 227 233 238 247 226 225 234 231 243 245 235 238 234 229 231 240 240 226
317 310 311 311 308 309 309 310 311 310 304 292 281 272 263 255 257 255 236 224 231 233 230 226 217 248 275 275 235 232 230 232 231 229 227 235 247 236
317 307 304 301 299 302 303 300 297 296 294 290 281 274 260 251 244 244 240 237 237 236 231 220 213 213 229 248 249 224 218 227 223 229 229 233 244 246
313 303 298 296 296 298 298 297 298 299 293 287 285 281 265 252 246 240 238 241 238 240 238 227 220 222 227 237 248 265 231 219 222 230 239 254 267 262
298 293 293 294 294 290 290 291 291 291 291 287 283 280 278 266 252 245 242 246 245 242 241 244 244 241 236 200 233 263 266 234 225 232 231 243 263 261
284 285 287 287 289 289 288 289 290 289 287 281 279 278 276 274 263 252 246 247 246 247 253 265 264 241 226 222 230 242 259 281 268 245 235 236 231 228
277 279 281 284 285 287 286 286 288 290 288 281 277 273 271 272 274 266 256 248 248 254 261 266 267 258 248 229 221 226 227 249 280 318 301 287 271 266
Height
1492 1493 1494 1495 1496 1497 1498 1499 1500 1499 1498 1499 1500 1501 1502 1503 1504 1504 1505 1506 1508 1509 1509 1510 1512 1513 1514 1515 1517 1518 1519 1521 1523 1525 1526 1527 1529 1531
1488 1488 1489 1490 1491 1492 1493 1494 1495 1495 1494 1493 1495 1496 1497 1498 1499 1499 1500 1501 1502 1503 1504 1505 1506 1508 1509 1510 1511 1513 1514 1516 1517 1519 1521 1522 1524 1526
1483 1483 1484 1485 1486 1486 1487 1488 1489 1489 1489 1488 1490 1491 1492 1492 1493 1494 1495 1495 1496 1497 1498 1499 1500 1502 1503 1505 1506 1507 1509 1510 1512 1513 1515 1517 1519 1520
1478 1478 1479 1480 1481 1481 1482 1482 1483 1484 1484 1483 1484 1485 1486 1487 1487 1488 1489 1489 1490 1491 1492 1493 1494 1496 1497 1499 1500 1501 1503 1504 1506 1508 1509 1511 1512 1514
1472 1473 1473 1474 1474 1475 1476 1477 1477 1478 1478 1478 1478 1479 1480 1481 1481 1482 1482 1483 1484 1485 1486 1487 1488 1489 1491 1492 1494 1495 1496 1498 1500 1502 1503 1504 1506 1508
1466 1467 1467 1468 1469 1469 1470 1471 1471 1472 1472 1472 1472 1473 1473 1474 1475 1475 1476 1477 1477 1479 1480 1481 1482 1483 1485 1486 1487 1489 1490 1492 1494 1495 1497 1499 1500 1502
1461 1461 1461 1462 1463 1464 1464 1465 1466 1466 1466 1466 1466 1467 1468 1469 1469 1470 1470 1470 1471 1472 1473 1474 1475 1477 1478 1479 1481 1482 1484 1486 1487 1489 1491 1493 1494 1496
1455 1455 1455 1456 1456 1457 1458 1459 1460 1460 1460 1461 1460 1461 1462 1463 1464 1464 1465 1465 1465 1466 1467 1468 1469 1470 1471 1473 1474 1476 1477 1479 1481 1483 1485 1486 1488 1489
1449 1449 1449 1449 1450 1451 1451 1452 1453 1454 1455 1455 1454 1455 1456 1457 1458 1458 1459 1459 1459 1460 1462 1461 1463 1463 1465 1467 1468 1470 1471 1473 1475 1476 1478 1480 1481 1483
1444 1444 1444 1444 1444 1445 1445 1445 1445 1446 1447 1448 1448 1449 1451 1452 1452 1453 1453 1453 1454 1455 1456 1455 1456 1457 1459 1460 1462 1463 1465 1466 1468 1470 1471 1473 1475 1476
1440 1439 1439 1439 1439 1440 1440 1439 1439 1439 1441 1441 1442 1442 1444 1445 1446 1447 1447 1448 1447 1448 1450 1450 1450 1451 1452 1453 1455 1457 1458 1460 1462 1463 1465 1466 1468 1469
1435 1434 1434 1434 1434 1434 1434 1433 1433 1433 1434 1434 1435 1436 1437 1438 1439 1440 1441 1442 1441 1442 1443 1445 1445 1446 1445 1446 1449 1450 1452 1454 1455 1457 1458 1459 1461 1462
1431 1430 1430 1430 1429 1429 1429 1428 1428 1428 1428 1428 1428 1429 1430 1432 1433 1434 1435 1436 1436 1436 1438 1439 1439 1441 1441 1440 1442 1444 1445 1447 1448 1450 1451 1453 1454 1455
1428 1427 1426 1425 1424 1424 1423 1423 1423 1423 1423 1423 1423 1423 1424 1425 1426 1427 1429 1429 1430 1431 1433 1434 1434 1435 1435 1435 1436 1437 1439 1441 1442 1443 1445 1446 1448 1449
1425 1423 1422 1421 1420 1419 1418 1418 1418 1418 1417 1417 1417 1418 1418 1419 1420 1422 1422 1424 1424 1426 1427 1428 1429 1429 1430 1430 1430 1431 1433 1434 1436 1437 1438 1440 1441 1442
1421 1420 1419 1417 1416 1415 1415 1414 1413 1413 1413 1413 1412 1413 1413 1414 1415 1415 1416 1417 1418 1419 1421 1422 1423 1424 1424 1425 1426 1426 1427 1428 1430 1432 1432 1433 1434 1435
1418 1416 1414 1413 1412 1412 1411 1410 1410 1410 1409 1409 1408 1408 1409 1409 1409 1410 1411 1412 1412 1413 1414 1416 1418 1419 1420 1420 1420 1421 1421 1423 1424 1425 1426 1426 1427 1429
1415 1412 1411 1410 1409 1408 1407 1407 1406 1406 1405 1405 1404 1404 1404 1404 1404 1405 1406 1406 1407 1408 1409 1410 1412 1413 1414 1414 1416 1415 1416 1417 1418 1420 1420 1420 1421 1423
1411 1409 1408 1406 1405 1405 1404 1403 1402 1402 1402 1401 1401 1400 1400 1400 1400 1400 1401 1401 1402 1403 1404 1405 1406 1407 1408 1407 1409 1412 1412 1412 1413 1413 1414 1415 1415 1416
1407 1405 1404 1403 1402 1401 1400 1400 1399 1398 1398 1397 1397 1397 1396 1396 1396 1396 1397 1397 1398 1398 1399 1400 1401 1402 1403 1403 1403 1404 1406 1407 1407 1407 1408 1409 1410 1411
1403 1401 1400 1400 1399 1398 1397 1396 1395 1395 1394 1394 1393 1393 1393 1393 1392 1393 1393 1393 1394 1394 1394 1395 1396 1398 1399 1399 1399 1398 1400 1402 1402 1402 1403 1403 1403 1404
1399 1398 1397 1396 1395 1394 1393 1392 1391 1391 1391 1390 1390 1389 1389 1389 1389 1389 1389 1389 1389 1390 1390 1391 1391 1392 1393 1394 1394 1394 1395 1396 1397 1398 1399 1399 1398 1398
1395 1394 1393 1392 1391 1390 1389 1388 1388 1387 1387 1387 1386 1386 1386 1385 1385 1385 1386 1386 1386 1386 1386 1387 1387 1388 1388 1389 1390 1390 1390 1391 1391 1392 1393 1394 1394 1394